Wetterdaten: Freitag, 04.10.2013
Datum Zeit Temperatur Luftfeuchte Luftdruck Regen Wind Richtung Richtung Sonnenschein ET UV Solar Taupunkt Windchill Windben
04.10.2013 00:00 7,0 C 74 % 1020,5 hPa 0,0 l/m 0,0 km/h (0 Bft) O-NO 74 0 min 0,000 mm 0,0 UV-I 0 W/m 2,7 C 7,0 C 1,6 km/h (1 Bft)
04.10.2013 00:05 7,0 C 72 % 1020,5 hPa 0,0 l/m 0,1 km/h (0 Bft) O-NO 74 0 min 0,000 mm 0,0 UV-I 0 W/m 2,3 C 7,0 C 1,6 km/h (1 Bft)
04.10.2013 00:10 7,2 C 73 % 1020,4 hPa 0,0 l/m 0,2 km/h (0 Bft) O-NO 74 0 min 0,000 mm 0,0 UV-I 0 W/m 2,7 C 7,2 C 1,6 km/h (1 Bft)
04.10.2013 00:15 7,2 C 73 % 1020,4 hPa 0,0 l/m 0,0 km/h (0 Bft) O-NO 74 0 min 0,000 mm 0,0 UV-I 0 W/m 2,7 C 7,2 C 1,6 km/h (1 Bft)
04.10.2013 00:20 7,2 C 73 % 1020,5 hPa 0,0 l/m 0,0 km/h (0 Bft) O-NO 74 0 min 0,000 mm 0,0 UV-I 0 W/m 2,7 C 7,2 C 1,6 km/h (1 Bft)
04.10.2013 00:25 7,2 C 73 % 1020,5 hPa 0,0 l/m 0,0 km/h (0 Bft) O-NO 74 0 min 0,000 mm 0,0 UV-I 0 W/m 2,7 C 7,2 C 1,6 km/h (1 Bft)
04.10.2013 00:30 7,1 C 74 % 1020,5 hPa 0,0 l/m 0,0 km/h (0 Bft) O-NO 74 0 min 0,000 mm 0,0 UV-I 0 W/m 2,8 C 7,1 C 1,6 km/h (1 Bft)
04.10.2013 00:35 7,1 C 73 % 1020,5 hPa 0,0 l/m 0,0 km/h (0 Bft) O-NO 74 0 min 0,000 mm 0,0 UV-I 0 W/m 2,6 C 7,1 C 1,6 km/h (1 Bft)
04.10.2013 00:40 7,1 C 73 % 1020,5 hPa 0,0 l/m 0,0 km/h (0 Bft) O-NO 74 0 min 0,000 mm 0,0 UV-I 0 W/m 2,6 C 7,1 C 0,0 km/h (0 Bft)
04.10.2013 00:45 7,2 C 73 % 1020,6 hPa 0,0 l/m 0,1 km/h (0 Bft) O-NO 74 0 min 0,000 mm 0,0 UV-I 0 W/m 2,7 C 7,2 C 1,6 km/h (1 Bft)
04.10.2013 00:50 7,2 C 73 % 1020,5 hPa 0,0 l/m 0,0 km/h (0 Bft) O-NO 74 0 min 0,000 mm 0,0 UV-I 0 W/m 2,7 C 7,2 C 1,6 km/h (1 Bft)
04.10.2013 00:55 7,2 C 73 % 1020,5 hPa 0,0 l/m 0,0 km/h (0 Bft) O-NO 74 0 min 0,000 mm 0,0 UV-I 0 W/m 2,7 C 7,2 C 1,6 km/h (1 Bft)
04.10.2013 01:00 7,2 C 73 % 1020,3 hPa 0,0 l/m 0,0 km/h (0 Bft) O-NO 74 0 min 0,000 mm 0,0 UV-I 0 W/m 2,7 C 7,2 C 0,0 km/h (0 Bft)
04.10.2013 01:05 7,1 C 74 % 1020,4 hPa 0,0 l/m 0,1 km/h (0 Bft) O-SO 104 0 min 0,025 mm 0,0 UV-I 0 W/m 2,8 C 7,1 C 1,6 km/h (1 Bft)
04.10.2013 01:10 7,0 C 75 % 1020,4 hPa 0,0 l/m 0,1 km/h (0 Bft) O-SO 105 0 min 0,000 mm 0,0 UV-I 0 W/m 2,9 C 7,0 C 3,2 km/h (1 Bft)
04.10.2013 01:15 6,9 C 75 % 1020,4 hPa 0,0 l/m 0,0 km/h (0 Bft) O-SO 105 0 min 0,000 mm 0,0 UV-I 0 W/m 2,8 C 6,9 C 0,0 km/h (0 Bft)
04.10.2013 01:20 6,8 C 75 % 1020,4 hPa 0,0 l/m 0,0 km/h (0 Bft) O-SO 105 0 min 0,000 mm 0,0 UV-I 0 W/m 2,7 C 6,8 C 0,0 km/h (0 Bft)
04.10.2013 01:25 6,7 C 75 % 1020,4 hPa 0,0 l/m 0,0 km/h (0 Bft) O-SO 105 0 min 0,000 mm 0,0 UV-I 0 W/m 2,6 C 6,7 C 1,6 km/h (1 Bft)
04.10.2013 01:30 6,7 C 76 % 1020,4 hPa 0,0 l/m 0,0 km/h (0 Bft) O-SO 105 0 min 0,000 mm 0,0 UV-I 0 W/m 2,8 C 6,7 C 0,0 km/h (0 Bft)
04.10.2013 01:35 6,7 C 76 % 1020,4 hPa 0,0 l/m 0,0 km/h (0 Bft) O-SO 105 0 min 0,000 mm 0,0 UV-I 0 W/m 2,8 C 6,7 C 0,0 km/h (0 Bft)
04.10.2013 01:40 6,7 C 76 % 1020,3 hPa 0,0 l/m 0,0 km/h (0 Bft) O-SO 105 0 min 0,000 mm 0,0 UV-I 0 W/m 2,8 C 6,7 C 0,0 km/h (0 Bft)
04.10.2013 01:45 6,6 C 76 % 1020,4 hPa 0,0 l/m 0,0 km/h (0 Bft) O-SO 105 0 min 0,000 mm 0,0 UV-I 0 W/m 2,7 C 6,6 C 1,6 km/h (1 Bft)
04.10.2013 01:50 6,7 C 76 % 1020,5 hPa 0,0 l/m 0,0 km/h (0 Bft) O-SO 105 0 min 0,000 mm 0,0 UV-I 0 W/m 2,8 C 6,7 C 0,0 km/h (0 Bft)
04.10.2013 01:55 6,6 C 76 % 1020,6 hPa 0,0 l/m 0,0 km/h (0 Bft) O-SO 105 0 min 0,000 mm 0,0 UV-I 0 W/m 2,7 C 6,6 C 0,0 km/h (0 Bft)
04.10.2013 02:00 6,6 C 77 % 1020,5 hPa 0,0 l/m 0,0 km/h (0 Bft) O-SO 105 0 min 0,000 mm 0,0 UV-I 0 W/m 2,9 C 6,6 C 0,0 km/h (0 Bft)
04.10.2013 02:05 6,6 C 76 % 1020,5 hPa 0,0 l/m 0,1 km/h (0 Bft) O-SO 104 0 min 0,026 mm 0,0 UV-I 0 W/m 2,7 C 6,6 C 1,6 km/h (1 Bft)
04.10.2013 02:10 6,6 C 75 % 1020,5 hPa 0,0 l/m 0,2 km/h (0 Bft) O-NO 78 0 min 0,000 mm 0,0 UV-I 0 W/m 2,5 C 6,6 C 3,2 km/h (1 Bft)
04.10.2013 02:15 6,7 C 75 % 1020,5 hPa 0,0 l/m 0,1 km/h (0 Bft) O-NO 77 0 min 0,000 mm 0,0 UV-I 0 W/m 2,6 C 6,7 C 3,2 km/h (1 Bft)
04.10.2013 02:20 6,8 C 74 % 1020,6 hPa 0,0 l/m 0,0 km/h (0 Bft) O-NO 77 0 min 0,000 mm 0,0 UV-I 0 W/m 2,5 C 6,8 C 0,0 km/h (0 Bft)
04.10.2013 02:25 6,8 C 74 % 1020,5 hPa 0,0 l/m 0,0 km/h (0 Bft) O-NO 76 0 min 0,000 mm 0,0 UV-I 0 W/m 2,5 C 6,8 C 1,6 km/h (1 Bft)
04.10.2013 02:30 6,9 C 74 % 1020,5 hPa 0,0 l/m 0,0 km/h (0 Bft) O-NO 76 0 min 0,000 mm 0,0 UV-I 0 W/m 2,6 C 6,9 C 0,0 km/h (0 Bft)
04.10.2013 02:35 6,9 C 74 % 1020,4 hPa 0,0 l/m 0,0 km/h (0 Bft) O-NO 76 0 min 0,000 mm 0,0 UV-I 0 W/m 2,6 C 6,9 C 1,6 km/h (1 Bft)
04.10.2013 02:40 6,9 C 75 % 1020,5 hPa 0,0 l/m 0,0 km/h (0 Bft) O-NO 76 0 min 0,000 mm 0,0 UV-I 0 W/m 2,8 C 6,9 C 1,6 km/h (1 Bft)
04.10.2013 02:45 6,9 C 75 % 1020,5 hPa 0,0 l/m 0,0 km/h (0 Bft) O-NO 76 0 min 0,000 mm 0,0 UV-I 0 W/m 2,8 C 6,9 C 1,6 km/h (1 Bft)
04.10.2013 02:50 6,8 C 76 % 1020,3 hPa 0,0 l/m 0,0 km/h (0 Bft) O-NO 76 0 min 0,000 mm 0,0 UV-I 0 W/m 2,9 C 6,8 C 1,6 km/h (1 Bft)
04.10.2013 02:55 6,7 C 75 % 1020,1 hPa 0,0 l/m 0,3 km/h (0 Bft) NO 50 0 min 0,000 mm 0,0 UV-I 0 W/m 2,6 C 6,7 C 6,4 km/h (2 Bft)
04.10.2013 03:00 6,7 C 75 % 1020,2 hPa 0,0 l/m 0,0 km/h (0 Bft) NO 50 0 min 0,000 mm 0,0 UV-I 0 W/m 2,6 C 6,7 C 1,6 km/h (1 Bft)
04.10.2013 03:05 6,8 C 75 % 1020,1 hPa 0,0 l/m 0,0 km/h (0 Bft) NO 50 0 min 0,025 mm 0,0 UV-I 0 W/m 2,7 C 6,8 C 1,6 km/h (1 Bft)
04.10.2013 03:10 6,9 C 74 % 1020,1 hPa 0,0 l/m 0,2 km/h (0 Bft) O-NO 65 0 min 0,000 mm 0,0 UV-I 0 W/m 2,6 C 6,9 C 3,2 km/h (1 Bft)
04.10.2013 03:15 7,1 C 73 % 1020,2 hPa 0,0 l/m 0,1 km/h (0 Bft) O-NO 65 0 min 0,000 mm 0,0 UV-I 0 W/m 2,6 C 7,1 C 1,6 km/h (1 Bft)
04.10.2013 03:20 7,1 C 73 % 1020,3 hPa 0,0 l/m 0,3 km/h (0 Bft) NO 53 0 min 0,000 mm 0,0 UV-I 0 W/m 2,6 C 7,1 C 4,8 km/h (1 Bft)
04.10.2013 03:25 7,1 C 73 % 1020,2 hPa 0,0 l/m 0,2 km/h (0 Bft) NO 53 0 min 0,000 mm 0,0 UV-I 0 W/m 2,6 C 7,1 C 1,6 km/h (1 Bft)
04.10.2013 03:30 7,1 C 72 % 1020,2 hPa 0,0 l/m 0,2 km/h (0 Bft) NO 53 0 min 0,000 mm 0,0 UV-I 0 W/m 2,4 C 7,1 C 3,2 km/h (1 Bft)
04.10.2013 03:35 7,1 C 73 % 1020,4 hPa 0,0 l/m 0,0 km/h (0 Bft) NO 53 0 min 0,000 mm 0,0 UV-I 0 W/m 2,6 C 7,1 C 0,0 km/h (0 Bft)
04.10.2013 03:40 7,0 C 73 % 1020,3 hPa 0,0 l/m 0,0 km/h (0 Bft) NO 53 0 min 0,000 mm 0,0 UV-I 0 W/m 2,5 C 7,0 C 1,6 km/h (1 Bft)
04.10.2013 03:45 6,9 C 73 % 1020,3 hPa 0,0 l/m 0,3 km/h (0 Bft) NO 56 0 min 0,000 mm 0,0 UV-I 0 W/m 2,4 C 6,9 C 3,2 km/h (1 Bft)
04.10.2013 03:50 7,1 C 72 % 1020,1 hPa 0,0 l/m 2,9 km/h (1 Bft) O-NO 59 0 min 0,000 mm 0,0 UV-I 0 W/m 2,4 C 7,1 C 8,0 km/h (2 Bft)
04.10.2013 03:55 7,3 C 71 % 1020,2 hPa 0,0 l/m 2,1 km/h (1 Bft) O-NO 59 0 min 0,000 mm 0,0 UV-I 0 W/m 2,4 C 7,3 C 11,3 km/h (2 Bft)
04.10.2013 04:00 7,3 C 73 % 1020,1 hPa 0,0 l/m 0,3 km/h (0 Bft) O-NO 61 0 min 0,000 mm 0,0 UV-I 0 W/m 2,8 C 7,3 C 3,2 km/h (1 Bft)
04.10.2013 04:05 7,3 C 71 % 1020,0 hPa 0,0 l/m 2,6 km/h (1 Bft) NO 55 0 min 0,000 mm 0,0 UV-I 0 W/m 2,4 C 7,3 C 9,7 km/h (2 Bft)
04.10.2013 04:10 7,5 C 70 % 1020,0 hPa 0,0 l/m 3,9 km/h (1 Bft) O-NO 67 0 min 0,000 mm 0,0 UV-I 0 W/m 2,4 C 7,5 C 11,3 km/h (2 Bft)
04.10.2013 04:15 7,8 C 69 % 1020,0 hPa 0,0 l/m 3,5 km/h (1 Bft) NO 53 0 min 0,000 mm 0,0 UV-I 0 W/m 2,5 C 7,8 C 11,3 km/h (2 Bft)
04.10.2013 04:20 7,9 C 68 % 1020,0 hPa 0,0 l/m 3,5 km/h (1 Bft) NO 46 0 min 0,000 mm 0,0 UV-I 0 W/m 2,4 C 7,9 C 14,5 km/h (3 Bft)
04.10.2013 04:25 8,0 C 68 % 1020,0 hPa 0,0 l/m 5,0 km/h (1 Bft) NO 42 0 min 0,000 mm 0,0 UV-I 0 W/m 2,5 C 8,0 C 12,9 km/h (3 Bft)
04.10.2013 04:30 8,1 C 68 % 1020,1 hPa 0,0 l/m 3,2 km/h (1 Bft) NO 36 0 min 0,000 mm 0,0 UV-I 0 W/m 2,6 C 8,1 C 8,0 km/h (2 Bft)
04.10.2013 04:35 8,1 C 67 % 1020,0 hPa 0,0 l/m 4,4 km/h (1 Bft) NO 45 0 min 0,000 mm 0,0 UV-I 0 W/m 2,3 C 8,1 C 12,9 km/h (3 Bft)
04.10.2013 04:40 8,1 C 67 % 1019,9 hPa 0,0 l/m 5,6 km/h (1 Bft) NO 44 0 min 0,000 mm 0,0 UV-I 0 W/m 2,3 C 8,1 C 12,9 km/h (3 Bft)
04.10.2013 04:45 8,2 C 67 % 1020,0 hPa 0,0 l/m 5,6 km/h (1 Bft) O-NO 65 0 min 0,000 mm 0,0 UV-I 0 W/m 2,4 C 8,2 C 12,9 km/h (3 Bft)
04.10.2013 04:50 8,2 C 67 % 1020,1 hPa 0,0 l/m 2,9 km/h (1 Bft) O 87 0 min 0,000 mm 0,0 UV-I 0 W/m 2,4 C 8,2 C 8,0 km/h (2 Bft)
04.10.2013 04:55 8,2 C 67 % 1020,0 hPa 0,0 l/m 1,9 km/h (1 Bft) O-NO 57 0 min 0,000 mm 0,0 UV-I 0 W/m 2,4 C 8,2 C 8,0 km/h (2 Bft)
04.10.2013 05:00 8,2 C 66 % 1019,8 hPa 0,0 l/m 5,7 km/h (1 Bft) O-NO 78 0 min 0,026 mm 0,0 UV-I 0 W/m 2,2 C 8,2 C 14,5 km/h (3 Bft)
04.10.2013 05:05 8,2 C 67 % 1019,8 hPa 0,0 l/m 6,2 km/h (2 Bft) O-NO 64 0 min 0,000 mm 0,0 UV-I 0 W/m 2,4 C 8,2 C 14,5 km/h (3 Bft)
04.10.2013 05:10 8,2 C 66 % 1019,9 hPa 0,0 l/m 5,7 km/h (1 Bft) NO 44 0 min 0,000 mm 0,0 UV-I 0 W/m 2,2 C 8,2 C 14,5 km/h (3 Bft)
04.10.2013 05:15 8,2 C 66 % 1020,1 hPa 0,0 l/m 5,5 km/h (1 Bft) NO 42 0 min 0,000 mm 0,0 UV-I 0 W/m 2,2 C 8,2 C 14,5 km/h (3 Bft)
04.10.2013 05:20 8,3 C 66 % 1020,0 hPa 0,0 l/m 4,3 km/h (1 Bft) O 82 0 min 0,000 mm 0,0 UV-I 0 W/m 2,3 C 8,3 C 12,9 km/h (3 Bft)
04.10.2013 05:25 8,3 C 66 % 1019,9 hPa 0,0 l/m 3,2 km/h (1 Bft) O-NO 57 0 min 0,000 mm 0,0 UV-I 0 W/m 2,3 C 8,3 C 6,4 km/h (2 Bft)
04.10.2013 05:30 8,3 C 66 % 1019,9 hPa 0,0 l/m 3,7 km/h (1 Bft) O-NO 74 0 min 0,000 mm 0,0 UV-I 0 W/m 2,3 C 8,3 C 9,7 km/h (2 Bft)
04.10.2013 05:35 8,3 C 66 % 1019,8 hPa 0,0 l/m 4,2 km/h (1 Bft) O-NO 57 0 min 0,000 mm 0,0 UV-I 0 W/m 2,3 C 8,3 C 12,9 km/h (3 Bft)
04.10.2013 05:40 8,3 C 66 % 1019,9 hPa 0,0 l/m 4,6 km/h (1 Bft) O-NO 72 0 min 0,000 mm 0,0 UV-I 0 W/m 2,3 C 8,3 C 12,9 km/h (3 Bft)
04.10.2013 05:45 8,3 C 66 % 1019,8 hPa 0,0 l/m 3,4 km/h (1 Bft) O-NO 61 0 min 0,000 mm 0,0 UV-I 0 W/m 2,3 C 8,3 C 12,9 km/h (3 Bft)
04.10.2013 05:50 8,3 C 66 % 1019,8 hPa 0,0 l/m 4,1 km/h (1 Bft) N-NO 28 0 min 0,000 mm 0,0 UV-I 0 W/m 2,3 C 8,3 C 11,3 km/h (2 Bft)
04.10.2013 05:55 8,3 C 66 % 1019,9 hPa 0,0 l/m 2,8 km/h (1 Bft) NO 50 0 min 0,000 mm 0,0 UV-I 0 W/m 2,3 C 8,3 C 9,7 km/h (2 Bft)
04.10.2013 06:00 8,3 C 66 % 1019,9 hPa 0,0 l/m 2,9 km/h (1 Bft) NO 53 0 min 0,025 mm 0,0 UV-I 0 W/m 2,3 C 8,3 C 9,7 km/h (2 Bft)
04.10.2013 06:05 8,3 C 66 % 1019,8 hPa 0,0 l/m 4,1 km/h (1 Bft) O-NO 61 0 min 0,000 mm 0,0 UV-I 0 W/m 2,3 C 8,3 C 11,3 km/h (2 Bft)
04.10.2013 06:10 8,3 C 66 % 1019,7 hPa 0,0 l/m 3,7 km/h (1 Bft) NO 49 0 min 0,000 mm 0,0 UV-I 0 W/m 2,3 C 8,3 C 8,0 km/h (2 Bft)
04.10.2013 06:15 8,2 C 66 % 1019,6 hPa 0,0 l/m 3,4 km/h (1 Bft) O-NO 66 0 min 0,000 mm 0,0 UV-I 0 W/m 2,2 C 8,2 C 11,3 km/h (2 Bft)
04.10.2013 06:20 8,3 C 66 % 1019,5 hPa 0,0 l/m 5,8 km/h (2 Bft) O-NO 65 0 min 0,000 mm 0,0 UV-I 0 W/m 2,3 C 8,3 C 14,5 km/h (3 Bft)
04.10.2013 06:25 8,2 C 66 % 1019,5 hPa 0,0 l/m 5,1 km/h (1 Bft) NO 55 0 min 0,000 mm 0,0 UV-I 0 W/m 2,2 C 8,2 C 12,9 km/h (3 Bft)
04.10.2013 06:30 8,3 C 66 % 1019,3 hPa 0,0 l/m 6,0 km/h (2 Bft) O-NO 76 0 min 0,000 mm 0,0 UV-I 0 W/m 2,3 C 8,3 C 14,5 km/h (3 Bft)
04.10.2013 06:35 8,2 C 66 % 1019,4 hPa 0,0 l/m 3,7 km/h (1 Bft) NO 52 0 min 0,000 mm 0,0 UV-I 0 W/m 2,2 C 8,2 C 12,9 km/h (3 Bft)
04.10.2013 06:40 8,3 C 66 % 1019,5 hPa 0,0 l/m 4,9 km/h (1 Bft) NO 53 0 min 0,000 mm 0,0 UV-I 0 W/m 2,3 C 8,3 C 12,9 km/h (3 Bft)
04.10.2013 06:45 8,2 C 66 % 1019,6 hPa 0,0 l/m 3,8 km/h (1 Bft) O-NO 65 0 min 0,000 mm 0,0 UV-I 0 W/m 2,2 C 8,2 C 11,3 km/h (2 Bft)
04.10.2013 06:50 8,2 C 66 % 1019,8 hPa 0,0 l/m 3,8 km/h (1 Bft) O-NO 71 0 min 0,000 mm 0,0 UV-I 0 W/m 2,2 C 8,2 C 9,7 km/h (2 Bft)
04.10.2013 06:55 8,3 C 66 % 1019,8 hPa 0,0 l/m 2,8 km/h (1 Bft) NO 46 0 min 0,000 mm 0,0 UV-I 0 W/m 2,3 C 8,3 C 11,3 km/h (2 Bft)
04.10.2013 07:00 8,3 C 68 % 1019,8 hPa 0,0 l/m 3,1 km/h (1 Bft) O-NO 65 0 min 0,025 mm 0,0 UV-I 0 W/m 2,7 C 8,3 C 9,7 km/h (2 Bft)
04.10.2013 07:05 8,3 C 69 % 1019,8 hPa 0,0 l/m 1,6 km/h (1 Bft) O-NO 61 0 min 0,000 mm 0,0 UV-I 0 W/m 3,0 C 8,3 C 6,4 km/h (2 Bft)
04.10.2013 07:10 8,1 C 70 % 1019,7 hPa 0,0 l/m 2,8 km/h (1 Bft) O-NO 59 0 min 0,000 mm 0,0 UV-I 0 W/m 3,0 C 8,1 C 8,0 km/h (2 Bft)
04.10.2013 07:15 7,9 C 73 % 1019,6 hPa 0,0 l/m 2,6 km/h (1 Bft) O-NO 59 0 min 0,000 mm 0,0 UV-I 0 W/m 3,4 C 7,9 C 8,0 km/h (2 Bft)
04.10.2013 07:20 7,8 C 74 % 1019,6 hPa 0,0 l/m 2,5 km/h (1 Bft) NO 44 0 min 0,000 mm 0,0 UV-I 0 W/m 3,5 C 7,8 C 11,3 km/h (2 Bft)
04.10.2013 07:25 7,7 C 74 % 1019,6 hPa 0,2 l/m 2,5 km/h (1 Bft) NO 48 0 min 0,000 mm 0,0 UV-I 0 W/m 3,4 C 7,7 C 8,0 km/h (2 Bft)
04.10.2013 07:30 7,6 C 75 % 1019,5 hPa 0,0 l/m 2,4 km/h (1 Bft) NO 36 0 min 0,000 mm 0,0 UV-I 0 W/m 3,5 C 7,6 C 6,4 km/h (2 Bft)
04.10.2013 07:35 7,5 C 76 % 1019,5 hPa 0,0 l/m 2,4 km/h (1 Bft) O-NO 66 0 min 0,000 mm 0,0 UV-I 0 W/m 3,5 C 7,5 C 8,0 km/h (2 Bft)
04.10.2013 07:40 7,4 C 75 % 1019,5 hPa 0,0 l/m 4,8 km/h (1 Bft) O-NO 76 0 min 0,000 mm 0,0 UV-I 0 W/m 3,3 C 7,4 C 14,5 km/h (3 Bft)
04.10.2013 07:45 7,4 C 77 % 1019,3 hPa 0,0 l/m 4,6 km/h (1 Bft) NO 46 0 min 0,000 mm 0,0 UV-I 0 W/m 3,6 C 7,4 C 11,3 km/h (2 Bft)
04.10.2013 07:50 7,3 C 77 % 1019,4 hPa 0,0 l/m 5,6 km/h (1 Bft) O-NO 72 0 min 0,000 mm 0,0 UV-I 5 W/m 3,5 C 7,3 C 14,5 km/h (3 Bft)
04.10.2013 07:55 7,2 C 78 % 1019,4 hPa 0,0 l/m 4,5 km/h (1 Bft) O-NO 69 0 min 0,000 mm 0,0 UV-I 9 W/m 3,6 C 7,2 C 11,3 km/h (2 Bft)
04.10.2013 08:00 7,1 C 77 % 1019,6 hPa 0,0 l/m 2,4 km/h (1 Bft) O 88 0 min 0,000 mm 0,0 UV-I 11 W/m 3,3 C 7,1 C 12,9 km/h (3 Bft)
04.10.2013 08:05 7,1 C 77 % 1019,8 hPa 0,0 l/m 1,0 km/h (0 Bft) O 94 0 min 0,000 mm 0,0 UV-I 11 W/m 3,3 C 7,1 C 6,4 km/h (2 Bft)
04.10.2013 08:10 7,1 C 79 % 1019,9 hPa 0,0 l/m 1,0 km/h (0 Bft) O 97 0 min 0,000 mm 0,0 UV-I 14 W/m 3,7 C 7,1 C 4,8 km/h (1 Bft)
04.10.2013 08:15 7,1 C 79 % 1019,7 hPa 0,0 l/m 1,3 km/h (1 Bft) O-NO 57 0 min 0,000 mm 0,0 UV-I 21 W/m 3,7 C 7,1 C 6,4 km/h (2 Bft)
04.10.2013 08:20 7,1 C 79 % 1019,9 hPa 0,0 l/m 2,1 km/h (1 Bft) NO 52 0 min 0,000 mm 0,0 UV-I 21 W/m 3,7 C 7,1 C 8,0 km/h (2 Bft)
04.10.2013 08:25 7,1 C 79 % 1019,9 hPa 0,0 l/m 1,3 km/h (1 Bft) NO 44 0 min 0,000 mm 0,0 UV-I 25 W/m 3,7 C 7,1 C 4,8 km/h (1 Bft)
04.10.2013 08:30 7,2 C 79 % 1020,0 hPa 0,0 l/m 3,1 km/h (1 Bft) O-NO 63 0 min 0,000 mm 0,0 UV-I 25 W/m 3,8 C 7,2 C 8,0 km/h (2 Bft)
04.10.2013 08:35 7,2 C 78 % 1020,0 hPa 0,0 l/m 4,7 km/h (1 Bft) NO 42 0 min 0,000 mm 0,0 UV-I 23 W/m 3,6 C 7,2 C 11,3 km/h (2 Bft)
04.10.2013 08:40 7,2 C 78 % 1020,0 hPa 0,0 l/m 2,4 km/h (1 Bft) O-NO 65 0 min 0,000 mm 0,0 UV-I 25 W/m 3,6 C 7,2 C 11,3 km/h (2 Bft)
04.10.2013 08:45 7,2 C 79 % 1020,0 hPa 0,0 l/m 3,0 km/h (1 Bft) NO 39 0 min 0,000 mm 0,0 UV-I 28 W/m 3,8 C 7,2 C 14,5 km/h (3 Bft)
04.10.2013 08:50 7,2 C 78 % 1020,1 hPa 0,0 l/m 1,9 km/h (1 Bft) O-NO 69 0 min 0,000 mm 0,0 UV-I 33 W/m 3,6 C 7,2 C 6,4 km/h (2 Bft)
04.10.2013 08:55 7,3 C 79 % 1020,1 hPa 0,0 l/m 2,6 km/h (1 Bft) NO 42 0 min 0,000 mm 0,0 UV-I 26 W/m 3,9 C 7,3 C 8,0 km/h (2 Bft)
04.10.2013 09:00 7,3 C 79 % 1020,2 hPa 0,0 l/m 1,4 km/h (1 Bft) NO 56 0 min 0,026 mm 0,0 UV-I 19 W/m 3,9 C 7,3 C 8,0 km/h (2 Bft)
04.10.2013 09:05 7,3 C 78 % 1020,1 hPa 0,0 l/m 1,7 km/h (1 Bft) NO 45 0 min 0,000 mm 0,0 UV-I 18 W/m 3,7 C 7,3 C 6,4 km/h (2 Bft)
04.10.2013 09:10 7,3 C 79 % 1019,9 hPa 0,0 l/m 2,1 km/h (1 Bft) O-NO 58 0 min 0,000 mm 0,0 UV-I 21 W/m 3,9 C 7,3 C 6,4 km/h (2 Bft)
04.10.2013 09:15 7,3 C 79 % 1020,0 hPa 0,0 l/m 1,6 km/h (1 Bft) NO 44 0 min 0,000 mm 0,0 UV-I 30 W/m 3,9 C 7,3 C 6,4 km/h (2 Bft)
04.10.2013 09:20 7,3 C 78 % 1020,0 hPa 0,0 l/m 3,4 km/h (1 Bft) NO 46 0 min 0,000 mm 0,0 UV-I 40 W/m 3,7 C 7,3 C 12,9 km/h (3 Bft)
04.10.2013 09:25 7,3 C 78 % 1020,1 hPa 0,0 l/m 1,6 km/h (1 Bft) O-NO 67 0 min 0,000 mm 0,0 UV-I 53 W/m 3,7 C 7,3 C 4,8 km/h (1 Bft)
04.10.2013 09:30 7,4 C 78 % 1020,3 hPa 0,0 l/m 0,0 km/h (0 Bft) O-NO 67 0 min 0,000 mm 0,5 UV-I 63 W/m 3,8 C 7,4 C 3,2 km/h (1 Bft)
04.10.2013 09:35 7,4 C 79 % 1020,3 hPa 0,0 l/m 1,9 km/h (1 Bft) O-NO 61 0 min 0,000 mm 0,6 UV-I 79 W/m 4,0 C 7,4 C 6,4 km/h (2 Bft)
04.10.2013 09:40 7,6 C 79 % 1020,2 hPa 0,0 l/m 4,2 km/h (1 Bft) O-SO 103 0 min 0,000 mm 0,6 UV-I 95 W/m 4,2 C 7,6 C 8,0 km/h (2 Bft)
04.10.2013 09:45 7,7 C 78 % 1020,2 hPa 0,0 l/m 1,5 km/h (1 Bft) O-NO 57 0 min 0,000 mm 0,7 UV-I 120 W/m 4,1 C 7,7 C 8,0 km/h (2 Bft)
04.10.2013 09:50 7,8 C 78 % 1020,1 hPa 0,0 l/m 1,4 km/h (1 Bft) O-NO 63 0 min 0,000 mm 0,7 UV-I 102 W/m 4,2 C 7,8 C 4,8 km/h (1 Bft)
04.10.2013 09:55 7,9 C 78 % 1020,0 hPa 0,0 l/m 4,1 km/h (1 Bft) NO 49 0 min 0,000 mm 0,8 UV-I 137 W/m 4,3 C 7,9 C 11,3 km/h (2 Bft)
04.10.2013 10:00 8,1 C 76 % 1020,0 hPa 0,0 l/m 1,7 km/h (1 Bft) NO 53 5 min 0,051 mm 0,9 UV-I 218 W/m 4,1 C 8,1 C 6,4 km/h (2 Bft)
04.10.2013 10:05 8,6 C 75 % 1020,0 hPa 0,0 l/m 1,6 km/h (1 Bft) O-NO 60 5 min 0,000 mm 0,9 UV-I 255 W/m 4,4 C 8,6 C 4,8 km/h (1 Bft)
04.10.2013 10:10 8,9 C 75 % 1020,0 hPa 0,0 l/m 2,5 km/h (1 Bft) NO 53 5 min 0,000 mm 1,0 UV-I 302 W/m 4,7 C 8,9 C 8,0 km/h (2 Bft)
04.10.2013 10:15 9,1 C 73 % 1020,2 hPa 0,0 l/m 2,5 km/h (1 Bft) O 91 5 min 0,000 mm 1,1 UV-I 334 W/m 4,5 C 9,1 C 8,0 km/h (2 Bft)
04.10.2013 10:20 9,2 C 74 % 1020,2 hPa 0,0 l/m 1,8 km/h (1 Bft) O 96 5 min 0,000 mm 1,1 UV-I 281 W/m 4,8 C 9,2 C 8,0 km/h (2 Bft)
04.10.2013 10:25 9,4 C 72 % 1020,4 hPa 0,0 l/m 1,7 km/h (1 Bft) O 88 0 min 0,000 mm 1,2 UV-I 206 W/m 4,6 C 9,4 C 4,8 km/h (1 Bft)
04.10.2013 10:30 9,7 C 72 % 1020,3 hPa 0,0 l/m 3,7 km/h (1 Bft) O 91 5 min 0,000 mm 1,3 UV-I 343 W/m 4,9 C 9,7 C 11,3 km/h (2 Bft)
04.10.2013 10:35 9,8 C 72 % 1020,4 hPa 0,0 l/m 3,9 km/h (1 Bft) NO 53 5 min 0,000 mm 1,3 UV-I 345 W/m 5,0 C 9,8 C 11,3 km/h (2 Bft)
04.10.2013 10:40 10,0 C 69 % 1020,3 hPa 0,0 l/m 5,0 km/h (1 Bft) O-SO 108 5 min 0,000 mm 1,5 UV-I 418 W/m 4,6 C 10,0 C 14,5 km/h (3 Bft)
04.10.2013 10:45 10,3 C 68 % 1020,1 hPa 0,0 l/m 5,6 km/h (1 Bft) SO 126 5 min 0,000 mm 1,5 UV-I 401 W/m 4,7 C 10,3 C 16,1 km/h (3 Bft)
04.10.2013 10:50 9,9 C 69 % 1020,2 hPa 0,0 l/m 6,9 km/h (2 Bft) O 98 0 min 0,000 mm 1,4 UV-I 234 W/m 4,5 C 9,5 C 16,1 km/h (3 Bft)
04.10.2013 10:55 9,7 C 71 % 1020,1 hPa 0,0 l/m 7,5 km/h (2 Bft) O-SO 104 0 min 0,000 mm 1,3 UV-I 214 W/m 4,7 C 8,9 C 14,5 km/h (3 Bft)
04.10.2013 11:00 9,6 C 71 % 1020,1 hPa 0,0 l/m 4,9 km/h (1 Bft) SO 125 0 min 0,000 mm 1,4 UV-I 248 W/m 4,6 C 9,6 C 11,3 km/h (2 Bft)
04.10.2013 11:05 9,8 C 73 % 1020,1 hPa 0,0 l/m 3,8 km/h (1 Bft) NO 51 0 min 0,152 mm 1,3 UV-I 207 W/m 5,2 C 9,8 C 14,5 km/h (3 Bft)
04.10.2013 11:10 9,8 C 72 % 1020,2 hPa 0,0 l/m 4,5 km/h (1 Bft) NO 51 5 min 0,000 mm 1,4 UV-I 308 W/m 5,0 C 9,8 C 11,3 km/h (2 Bft)
04.10.2013 11:15 9,9 C 71 % 1020,2 hPa 0,0 l/m 3,4 km/h (1 Bft) O 91 0 min 0,000 mm 1,4 UV-I 236 W/m 4,9 C 9,9 C 12,9 km/h (3 Bft)
04.10.2013 11:20 10,0 C 73 % 1020,1 hPa 0,0 l/m 4,1 km/h (1 Bft) NO 51 0 min 0,000 mm 1,5 UV-I 232 W/m 5,4 C 10,0 C 12,9 km/h (3 Bft)
04.10.2013 11:25 10,5 C 70 % 1020,3 hPa 0,0 l/m 6,2 km/h (2 Bft) O 80 5 min 0,000 mm 1,6 UV-I 276 W/m 5,3 C 10,5 C 12,9 km/h (3 Bft)
04.10.2013 11:30 10,8 C 70 % 1020,2 hPa 0,0 l/m 7,0 km/h (2 Bft) O 82 0 min 0,000 mm 1,6 UV-I 241 W/m 5,6 C 10,4 C 16,1 km/h (3 Bft)
04.10.2013 11:35 11,1 C 69 % 1020,2 hPa 0,0 l/m 7,4 km/h (2 Bft) O-NO 74 5 min 0,000 mm 1,9 UV-I 345 W/m 5,6 C 10,4 C 14,5 km/h (3 Bft)
04.10.2013 11:40 11,2 C 69 % 1020,1 hPa 0,0 l/m 5,6 km/h (1 Bft) NO 51 5 min 0,000 mm 1,8 UV-I 316 W/m 5,7 C 11,2 C 14,5 km/h (3 Bft)
04.10.2013 11:45 11,3 C 68 % 1020,0 hPa 0,0 l/m 7,8 km/h (2 Bft) O 100 5 min 0,000 mm 2,0 UV-I 439 W/m 5,6 C 10,3 C 17,7 km/h (3 Bft)
04.10.2013 11:50 10,8 C 70 % 1020,0 hPa 0,0 l/m 6,0 km/h (2 Bft) O-NO 59 5 min 0,000 mm 1,9 UV-I 323 W/m 5,6 C 10,8 C 14,5 km/h (3 Bft)
04.10.2013 11:55 11,2 C 70 % 1020,1 hPa 0,0 l/m 3,0 km/h (1 Bft) SO 128 5 min 0,000 mm 2,1 UV-I 396 W/m 5,9 C 11,2 C 8,0 km/h (2 Bft)
04.10.2013 12:00 11,2 C 70 % 1020,2 hPa 0,0 l/m 3,0 km/h (1 Bft) SO 140 5 min 0,152 mm 2,0 UV-I 381 W/m 5,9 C 11,2 C 9,7 km/h (2 Bft)
04.10.2013 12:05 11,6 C 70 % 1020,1 hPa 0,0 l/m 3,5 km/h (1 Bft) NO 34 5 min 0,000 mm 1,9 UV-I 316 W/m 6,3 C 11,6 C 12,9 km/h (3 Bft)
04.10.2013 12:10 11,4 C 68 % 1020,3 hPa 0,0 l/m 4,5 km/h (1 Bft) O-NO 67 5 min 0,000 mm 1,9 UV-I 309 W/m 5,7 C 11,4 C 12,9 km/h (3 Bft)
04.10.2013 12:15 11,3 C 69 % 1020,1 hPa 0,0 l/m 6,2 km/h (2 Bft) O 80 5 min 0,000 mm 1,9 UV-I 381 W/m 5,8 C 11,3 C 11,3 km/h (2 Bft)
04.10.2013 12:20 11,7 C 71 % 1020,0 hPa 0,0 l/m 3,8 km/h (1 Bft) O-SO 117 0 min 0,000 mm 1,7 UV-I 239 W/m 6,6 C 11,7 C 8,0 km/h (2 Bft)
04.10.2013 12:25 11,5 C 69 % 1020,0 hPa 0,0 l/m 4,4 km/h (1 Bft) O-SO 111 0 min 0,000 mm 1,8 UV-I 279 W/m 6,0 C 11,5 C 8,0 km/h (2 Bft)
04.10.2013 12:30 11,4 C 70 % 1019,9 hPa 0,0 l/m 3,4 km/h (1 Bft) O 82 0 min 0,000 mm 1,6 UV-I 225 W/m 6,1 C 11,4 C 12,9 km/h (3 Bft)
04.10.2013 12:35 11,3 C 71 % 1020,1 hPa 0,0 l/m 4,8 km/h (1 Bft) O 90 0 min 0,000 mm 1,3 UV-I 190 W/m 6,2 C 11,3 C 12,9 km/h (3 Bft)
04.10.2013 12:40 11,3 C 71 % 1020,1 hPa 0,0 l/m 3,9 km/h (1 Bft) O-SO 121 0 min 0,000 mm 1,3 UV-I 178 W/m 6,2 C 11,3 C 11,3 km/h (2 Bft)
04.10.2013 12:45 11,3 C 71 % 1020,3 hPa 0,0 l/m 4,2 km/h (1 Bft) SO 134 0 min 0,000 mm 1,3 UV-I 165 W/m 6,2 C 11,3 C 11,3 km/h (2 Bft)
04.10.2013 12:50 11,2 C 72 % 1020,2 hPa 0,0 l/m 2,6 km/h (1 Bft) O 100 0 min 0,000 mm 1,4 UV-I 181 W/m 6,3 C 11,2 C 8,0 km/h (2 Bft)
04.10.2013 12:55 11,2 C 72 % 1020,0 hPa 0,0 l/m 3,3 km/h (1 Bft) O-SO 111 0 min 0,000 mm 1,5 UV-I 232 W/m 6,3 C 11,2 C 9,7 km/h (2 Bft)
04.10.2013 13:00 11,3 C 72 % 1020,0 hPa 0,0 l/m 4,8 km/h (1 Bft) O 84 0 min 0,000 mm 1,7 UV-I 244 W/m 6,4 C 11,3 C 12,9 km/h (3 Bft)
04.10.2013 13:05 11,4 C 73 % 1020,1 hPa 0,0 l/m 2,8 km/h (1 Bft) SO 128 0 min 0,127 mm 1,8 UV-I 269 W/m 6,7 C 11,4 C 9,7 km/h (2 Bft)
04.10.2013 13:10 11,4 C 73 % 1020,1 hPa 0,0 l/m 2,5 km/h (1 Bft) O 92 0 min 0,000 mm 1,7 UV-I 236 W/m 6,7 C 11,4 C 8,0 km/h (2 Bft)
04.10.2013 13:15 11,5 C 74 % 1020,0 hPa 0,0 l/m 2,0 km/h (1 Bft) O-SO 108 5 min 0,000 mm 2,2 UV-I 404 W/m 7,0 C 11,5 C 8,0 km/h (2 Bft)
04.10.2013 13:20 11,6 C 74 % 1019,9 hPa 0,0 l/m 6,4 km/h (2 Bft) O 92 5 min 0,000 mm 2,6 UV-I 466 W/m 7,1 C 11,6 C 14,5 km/h (3 Bft)
04.10.2013 13:25 12,5 C 72 % 1019,8 hPa 0,0 l/m 3,6 km/h (1 Bft) NO 46 5 min 0,000 mm 2,7 UV-I 575 W/m 7,6 C 12,5 C 8,0 km/h (2 Bft)
04.10.2013 13:30 13,4 C 69 % 1019,8 hPa 0,0 l/m 3,6 km/h (1 Bft) O-NO 65 5 min 0,000 mm 2,6 UV-I 555 W/m 7,8 C 13,4 C 11,3 km/h (2 Bft)
04.10.2013 13:35 13,9 C 66 % 1019,7 hPa 0,0 l/m 4,5 km/h (1 Bft) SO 146 5 min 0,000 mm 2,7 UV-I 327 W/m 7,7 C 13,9 C 12,9 km/h (3 Bft)
04.10.2013 13:40 12,8 C 70 % 1019,6 hPa 0,0 l/m 6,7 km/h (2 Bft) O-SO 122 5 min 0,000 mm 2,3 UV-I 410 W/m 7,5 C 12,6 C 14,5 km/h (3 Bft)
04.10.2013 13:45 12,7 C 71 % 1019,7 hPa 0,0 l/m 6,1 km/h (2 Bft) O 86 0 min 0,000 mm 1,7 UV-I 199 W/m 7,6 C 12,7 C 14,5 km/h (3 Bft)
04.10.2013 13:50 12,4 C 71 % 1019,8 hPa 0,0 l/m 5,4 km/h (1 Bft) O 88 0 min 0,000 mm 1,4 UV-I 171 W/m 7,3 C 12,4 C 11,3 km/h (2 Bft)
04.10.2013 13:55 12,2 C 72 % 1019,6 hPa 0,0 l/m 5,1 km/h (1 Bft) O-NO 74 0 min 0,000 mm 1,3 UV-I 183 W/m 7,3 C 12,2 C 12,9 km/h (3 Bft)
04.10.2013 14:00 12,2 C 73 % 1019,7 hPa 0,0 l/m 3,6 km/h (1 Bft) O 79 0 min 0,000 mm 1,2 UV-I 167 W/m 7,5 C 12,2 C 11,3 km/h (2 Bft)
04.10.2013 14:05 12,1 C 73 % 1019,6 hPa 0,0 l/m 4,9 km/h (1 Bft) NO 53 0 min 0,178 mm 1,2 UV-I 171 W/m 7,4 C 12,1 C 12,9 km/h (3 Bft)
04.10.2013 14:10 12,1 C 73 % 1019,8 hPa 0,0 l/m 4,2 km/h (1 Bft) O 93 0 min 0,000 mm 1,3 UV-I 186 W/m 7,4 C 12,1 C 9,7 km/h (2 Bft)
04.10.2013 14:15 12,2 C 74 % 1019,8 hPa 0,0 l/m 2,3 km/h (1 Bft) O 92 0 min 0,000 mm 1,3 UV-I 200 W/m 7,7 C 12,2 C 8,0 km/h (2 Bft)
04.10.2013 14:20 12,7 C 73 % 1019,7 hPa 0,0 l/m 4,9 km/h (1 Bft) SO 135 5 min 0,000 mm 1,8 UV-I 313 W/m 8,0 C 12,7 C 12,9 km/h (3 Bft)
04.10.2013 14:25 12,4 C 72 % 1019,6 hPa 0,0 l/m 5,9 km/h (2 Bft) O-NO 74 0 min 0,000 mm 1,6 UV-I 239 W/m 7,5 C 12,4 C 14,5 km/h (3 Bft)
04.10.2013 14:30 12,5 C 73 % 1019,5 hPa 0,0 l/m 6,4 km/h (2 Bft) O-NO 67 5 min 0,000 mm 2,0 UV-I 350 W/m 7,8 C 12,5 C 19,3 km/h (3 Bft)
04.10.2013 14:35 12,7 C 72 % 1019,6 hPa 0,0 l/m 3,2 km/h (1 Bft) S 190 0 min 0,000 mm 1,9 UV-I 290 W/m 7,8 C 12,7 C 12,9 km/h (3 Bft)
04.10.2013 14:40 12,7 C 72 % 1019,7 hPa 0,0 l/m 6,4 km/h (2 Bft) O-NO 65 0 min 0,000 mm 1,5 UV-I 248 W/m 7,8 C 12,7 C 14,5 km/h (3 Bft)
04.10.2013 14:45 12,8 C 72 % 1019,6 hPa 0,0 l/m 4,2 km/h (1 Bft) O-SO 111 0 min 0,000 mm 1,4 UV-I 227 W/m 7,9 C 12,8 C 11,3 km/h (2 Bft)
04.10.2013 14:50 12,8 C 73 % 1019,6 hPa 0,0 l/m 3,8 km/h (1 Bft) SO 128 0 min 0,000 mm 1,4 UV-I 223 W/m 8,1 C 12,8 C 12,9 km/h (3 Bft)
04.10.2013 14:55 12,9 C 72 % 1019,6 hPa 0,0 l/m 4,3 km/h (1 Bft) O 95 0 min 0,000 mm 1,2 UV-I 169 W/m 8,0 C 12,9 C 11,3 km/h (2 Bft)
04.10.2013 15:00 12,9 C 72 % 1019,5 hPa 0,0 l/m 5,4 km/h (1 Bft) O-NO 60 0 min 0,000 mm 1,3 UV-I 234 W/m 8,0 C 12,9 C 11,3 km/h (2 Bft)
04.10.2013 15:05 12,9 C 72 % 1019,5 hPa 0,0 l/m 4,9 km/h (1 Bft) O-NO 70 0 min 0,127 mm 1,1 UV-I 185 W/m 8,0 C 12,9 C 9,7 km/h (2 Bft)
04.10.2013 15:10 12,8 C 72 % 1019,5 hPa 0,0 l/m 6,6 km/h (2 Bft) O 86 0 min 0,000 mm 1,1 UV-I 132 W/m 7,9 C 12,7 C 14,5 km/h (3 Bft)
04.10.2013 15:15 12,8 C 72 % 1019,5 hPa 0,0 l/m 5,1 km/h (1 Bft) O-NO 58 0 min 0,000 mm 0,9 UV-I 139 W/m 7,9 C 12,8 C 11,3 km/h (2 Bft)
04.10.2013 15:20 12,7 C 72 % 1019,6 hPa 0,0 l/m 4,8 km/h (1 Bft) NO 45 0 min 0,000 mm 0,7 UV-I 97 W/m 7,8 C 12,7 C 11,3 km/h (2 Bft)
04.10.2013 15:25 12,5 C 72 % 1019,5 hPa 0,0 l/m 5,2 km/h (1 Bft) O-NO 69 0 min 0,000 mm 0,7 UV-I 90 W/m 7,6 C 12,5 C 12,9 km/h (3 Bft)
04.10.2013 15:30 12,3 C 73 % 1019,6 hPa 0,0 l/m 5,0 km/h (1 Bft) O-NO 74 0 min 0,000 mm 0,8 UV-I 107 W/m 7,6 C 12,3 C 12,9 km/h (3 Bft)
04.10.2013 15:35 12,2 C 73 % 1019,4 hPa 0,0 l/m 4,6 km/h (1 Bft) NO 51 0 min 0,000 mm 0,9 UV-I 137 W/m 7,5 C 12,2 C 9,7 km/h (2 Bft)
04.10.2013 15:40 12,2 C 73 % 1019,3 hPa 0,0 l/m 6,5 km/h (2 Bft) NO 53 0 min 0,000 mm 1,0 UV-I 174 W/m 7,5 C 12,2 C 12,9 km/h (3 Bft)
04.10.2013 15:45 12,2 C 73 % 1019,4 hPa 0,0 l/m 5,5 km/h (1 Bft) O 98 0 min 0,000 mm 1,0 UV-I 172 W/m 7,5 C 12,2 C 12,9 km/h (3 Bft)
04.10.2013 15:50 12,2 C 74 % 1019,3 hPa 0,0 l/m 6,0 km/h (2 Bft) O-NO 61 0 min 0,000 mm 1,0 UV-I 207 W/m 7,7 C 12,2 C 12,9 km/h (3 Bft)
04.10.2013 15:55 12,2 C 73 % 1019,3 hPa 0,0 l/m 3,5 km/h (1 Bft) O 97 0 min 0,000 mm 1,0 UV-I 188 W/m 7,5 C 12,2 C 11,3 km/h (2 Bft)
04.10.2013 16:00 12,3 C 73 % 1019,4 hPa 0,0 l/m 2,7 km/h (1 Bft) O-SO 107 0 min 0,000 mm 0,9 UV-I 181 W/m 7,6 C 12,3 C 8,0 km/h (2 Bft)
04.10.2013 16:05 12,2 C 73 % 1019,4 hPa 0,0 l/m 3,9 km/h (1 Bft) O 101 0 min 0,102 mm 1,0 UV-I 214 W/m 7,5 C 12,2 C 12,9 km/h (3 Bft)
04.10.2013 16:10 12,0 C 73 % 1019,4 hPa 0,0 l/m 6,9 km/h (2 Bft) O 94 0 min 0,000 mm 0,8 UV-I 174 W/m 7,3 C 11,7 C 14,5 km/h (3 Bft)
04.10.2013 16:15 12,1 C 74 % 1019,3 hPa 0,0 l/m 4,6 km/h (1 Bft) O-SO 122 0 min 0,000 mm 0,9 UV-I 183 W/m 7,6 C 12,1 C 11,3 km/h (2 Bft)
04.10.2013 16:20 12,2 C 73 % 1019,3 hPa 0,0 l/m 2,6 km/h (1 Bft) O-NO 57 0 min 0,000 mm 0,8 UV-I 160 W/m 7,5 C 12,2 C 6,4 km/h (2 Bft)
04.10.2013 16:25 12,2 C 73 % 1019,3 hPa 0,0 l/m 3,6 km/h (1 Bft) O-NO 74 0 min 0,000 mm 0,8 UV-I 178 W/m 7,5 C 12,2 C 11,3 km/h (2 Bft)
04.10.2013 16:30 12,2 C 73 % 1019,3 hPa 0,0 l/m 4,5 km/h (1 Bft) O-NO 61 5 min 0,000 mm 0,8 UV-I 216 W/m 7,5 C 12,2 C 11,3 km/h (2 Bft)
04.10.2013 16:35 12,3 C 73 % 1019,3 hPa 0,0 l/m 3,8 km/h (1 Bft) O-NO 67 5 min 0,000 mm 0,8 UV-I 251 W/m 7,6 C 12,3 C 9,7 km/h (2 Bft)
04.10.2013 16:40 12,4 C 73 % 1019,3 hPa 0,0 l/m 2,3 km/h (1 Bft) O-SO 103 5 min 0,000 mm 0,7 UV-I 207 W/m 7,7 C 12,4 C 4,8 km/h (1 Bft)
04.10.2013 16:45 12,7 C 72 % 1019,2 hPa 0,0 l/m 4,3 km/h (1 Bft) NO 53 5 min 0,000 mm 0,8 UV-I 276 W/m 7,8 C 12,7 C 9,7 km/h (2 Bft)
04.10.2013 16:50 13,3 C 71 % 1019,0 hPa 0,0 l/m 2,4 km/h (1 Bft) O-NO 57 5 min 0,000 mm 0,7 UV-I 274 W/m 8,2 C 13,3 C 6,4 km/h (2 Bft)
04.10.2013 16:55 13,7 C 68 % 1019,1 hPa 0,0 l/m 3,5 km/h (1 Bft) NO 44 5 min 0,000 mm 0,7 UV-I 234 W/m 7,9 C 13,7 C 8,0 km/h (2 Bft)
04.10.2013 17:00 13,8 C 68 % 1019,0 hPa 0,0 l/m 3,8 km/h (1 Bft) O-NO 58 5 min 0,000 mm 0,6 UV-I 169 W/m 8,0 C 13,8 C 11,3 km/h (2 Bft)
04.10.2013 17:05 13,6 C 69 % 1019,0 hPa 0,0 l/m 1,8 km/h (1 Bft) O-NO 57 0 min 0,127 mm 0,5 UV-I 132 W/m 8,0 C 13,6 C 6,4 km/h (2 Bft)
04.10.2013 17:10 13,4 C 69 % 1018,9 hPa 0,0 l/m 3,3 km/h (1 Bft) NO 55 0 min 0,000 mm 0,5 UV-I 130 W/m 7,8 C 13,4 C 9,7 km/h (2 Bft)
04.10.2013 17:15 13,2 C 70 % 1018,8 hPa 0,0 l/m 3,6 km/h (1 Bft) NO 44 5 min 0,000 mm 0,5 UV-I 142 W/m 7,9 C 13,2 C 9,7 km/h (2 Bft)
04.10.2013 17:20 13,2 C 70 % 1018,7 hPa 0,0 l/m 3,1 km/h (1 Bft) O 94 5 min 0,000 mm 0,5 UV-I 186 W/m 7,9 C 13,2 C 9,7 km/h (2 Bft)
04.10.2013 17:25 12,8 C 71 % 1018,7 hPa 0,0 l/m 3,9 km/h (1 Bft) O 98 5 min 0,000 mm 0,0 UV-I 188 W/m 7,7 C 12,8 C 9,7 km/h (2 Bft)
04.10.2013 17:30 12,9 C 72 % 1018,6 hPa 0,0 l/m 3,9 km/h (1 Bft) O-NO 65 5 min 0,000 mm 0,0 UV-I 181 W/m 8,0 C 12,9 C 11,3 km/h (2 Bft)
04.10.2013 17:35 13,1 C 71 % 1018,6 hPa 0,0 l/m 3,9 km/h (1 Bft) O 98 5 min 0,000 mm 0,0 UV-I 132 W/m 8,0 C 13,1 C 9,7 km/h (2 Bft)
04.10.2013 17:40 12,8 C 71 % 1018,6 hPa 0,0 l/m 2,5 km/h (1 Bft) O 88 0 min 0,000 mm 0,0 UV-I 95 W/m 7,7 C 12,8 C 6,4 km/h (2 Bft)
04.10.2013 17:45 12,6 C 72 % 1018,7 hPa 0,0 l/m 2,5 km/h (1 Bft) O-NO 74 0 min 0,000 mm 0,0 UV-I 81 W/m 7,7 C 12,6 C 6,4 km/h (2 Bft)
04.10.2013 17:50 12,4 C 73 % 1018,6 hPa 0,0 l/m 4,2 km/h (1 Bft) O-NO 75 0 min 0,000 mm 0,0 UV-I 63 W/m 7,7 C 12,4 C 11,3 km/h (2 Bft)
04.10.2013 17:55 12,2 C 74 % 1018,7 hPa 0,0 l/m 4,0 km/h (1 Bft) O-SO 115 0 min 0,000 mm 0,0 UV-I 46 W/m 7,7 C 12,2 C 9,7 km/h (2 Bft)
04.10.2013 18:00 12,1 C 74 % 1018,8 hPa 0,2 l/m 2,2 km/h (1 Bft) SO 125 0 min 0,000 mm 0,0 UV-I 42 W/m 7,6 C 12,1 C 6,4 km/h (2 Bft)
04.10.2013 18:05 12,1 C 75 % 1018,8 hPa 0,0 l/m 1,4 km/h (1 Bft) O 96 0 min 0,076 mm 0,0 UV-I 42 W/m 7,8 C 12,1 C 6,4 km/h (2 Bft)
04.10.2013 18:10 12,0 C 75 % 1018,9 hPa 0,0 l/m 0,5 km/h (0 Bft) O-NO 78 0 min 0,000 mm 0,0 UV-I 39 W/m 7,7 C 12,0 C 3,2 km/h (1 Bft)
04.10.2013 18:15 11,9 C 75 % 1018,9 hPa 0,0 l/m 1,6 km/h (1 Bft) O-NO 70 0 min 0,000 mm 0,0 UV-I 35 W/m 7,6 C 11,9 C 4,8 km/h (1 Bft)
04.10.2013 18:20 11,8 C 75 % 1018,9 hPa 0,0 l/m 0,1 km/h (0 Bft) O-NO 70 0 min 0,000 mm 0,0 UV-I 25 W/m 7,5 C 11,8 C 1,6 km/h (1 Bft)
04.10.2013 18:25 11,9 C 75 % 1019,1 hPa 0,0 l/m 0,0 km/h (0 Bft) O-NO 70 0 min 0,000 mm 0,0 UV-I 19 W/m 7,6 C 11,9 C 0,0 km/h (0 Bft)
04.10.2013 18:30 11,9 C 75 % 1019,1 hPa 0,0 l/m 0,0 km/h (0 Bft) O-NO 70 0 min 0,000 mm 0,0 UV-I 16 W/m 7,6 C 11,9 C 1,6 km/h (1 Bft)
04.10.2013 18:35 12,0 C 76 % 1019,2 hPa 0,0 l/m 0,0 km/h (0 Bft) O-NO 70 0 min 0,000 mm 0,0 UV-I 14 W/m 7,9 C 12,0 C 0,0 km/h (0 Bft)
04.10.2013 18:40 12,0 C 76 % 1019,1 hPa 0,0 l/m 0,0 km/h (0 Bft) O-NO 70 0 min 0,000 mm 0,0 UV-I 12 W/m 7,9 C 12,0 C 0,0 km/h (0 Bft)
04.10.2013 18:45 12,0 C 76 % 1019,1 hPa 0,0 l/m 0,0 km/h (0 Bft) O-NO 70 0 min 0,000 mm 0,0 UV-I 9 W/m 7,9 C 12,0 C 0,0 km/h (0 Bft)
04.10.2013 18:50 12,0 C 76 % 1019,1 hPa 0,0 l/m 0,0 km/h (0 Bft) O-NO 70 0 min 0,000 mm 0,0 UV-I 5 W/m 7,9 C 12,0 C 0,0 km/h (0 Bft)
04.10.2013 18:55 11,9 C 76 % 1019,0 hPa 0,0 l/m 0,0 km/h (0 Bft) O-NO 70 0 min 0,000 mm 0,0 UV-I 0 W/m 7,8 C 11,9 C 0,0 km/h (0 Bft)
04.10.2013 19:00 11,9 C 76 % 1018,9 hPa 0,0 l/m 0,0 km/h (0 Bft) O-NO 70 0 min 0,000 mm 0,0 UV-I 0 W/m 7,8 C 11,9 C 0,0 km/h (0 Bft)
04.10.2013 19:05 11,8 C 77 % 1018,9 hPa 0,0 l/m 0,0 km/h (0 Bft) O-NO 70 0 min 0,025 mm 0,0 UV-I 0 W/m 7,9 C 11,8 C 1,6 km/h (1 Bft)
04.10.2013 19:10 11,8 C 77 % 1018,9 hPa 0,0 l/m 0,0 km/h (0 Bft) O-NO 70 0 min 0,000 mm 0,0 UV-I 0 W/m 7,9 C 11,8 C 1,6 km/h (1 Bft)
04.10.2013 19:15 11,7 C 77 % 1018,8 hPa 0,0 l/m 0,5 km/h (0 Bft) NO 36 0 min 0,000 mm 0,0 UV-I 0 W/m 7,8 C 11,7 C 4,8 km/h (1 Bft)
04.10.2013 19:20 11,6 C 77 % 1018,8 hPa 0,0 l/m 0,3 km/h (0 Bft) NO 36 0 min 0,000 mm 0,0 UV-I 0 W/m 7,7 C 11,6 C 3,2 km/h (1 Bft)
04.10.2013 19:25 11,4 C 77 % 1018,9 hPa 0,0 l/m 0,0 km/h (0 Bft) NO 36 0 min 0,000 mm 0,0 UV-I 0 W/m 7,5 C 11,4 C 1,6 km/h (1 Bft)
04.10.2013 19:30 11,3 C 78 % 1018,9 hPa 0,0 l/m 0,0 km/h (0 Bft) NO 36 0 min 0,000 mm 0,0 UV-I 0 W/m 7,6 C 11,3 C 0,0 km/h (0 Bft)
04.10.2013 19:35 11,2 C 79 % 1019,0 hPa 0,0 l/m 0,0 km/h (0 Bft) NO 36 0 min 0,000 mm 0,0 UV-I 0 W/m 7,7 C 11,2 C 0,0 km/h (0 Bft)
04.10.2013 19:40 11,1 C 80 % 1019,2 hPa 0,0 l/m 0,0 km/h (0 Bft) NO 36 0 min 0,000 mm 0,0 UV-I 0 W/m 7,8 C 11,1 C 0,0 km/h (0 Bft)
04.10.2013 19:45 11,0 C 80 % 1019,3 hPa 0,0 l/m 0,0 km/h (0 Bft) NO 36 0 min 0,000 mm 0,0 UV-I 0 W/m 7,7 C 11,0 C 0,0 km/h (0 Bft)
04.10.2013 19:50 10,9 C 81 % 1019,2 hPa 0,0 l/m 0,0 km/h (0 Bft) NO 36 0 min 0,000 mm 0,0 UV-I 0 W/m 7,8 C 10,9 C 1,6 km/h (1 Bft)
04.10.2013 19:55 10,8 C 81 % 1019,2 hPa 0,0 l/m 0,0 km/h (0 Bft) NO 36 0 min 0,000 mm 0,0 UV-I 0 W/m 7,7 C 10,8 C 0,0 km/h (0 Bft)
04.10.2013 20:00 10,8 C 81 % 1019,2 hPa 0,0 l/m 0,0 km/h (0 Bft) NO 36 0 min 0,000 mm 0,0 UV-I 0 W/m 7,7 C 10,8 C 0,0 km/h (0 Bft)
04.10.2013 20:05 10,8 C 82 % 1019,3 hPa 0,0 l/m 0,0 km/h (0 Bft) NO 36 0 min 0,000 mm 0,0 UV-I 0 W/m 7,9 C 10,8 C 0,0 km/h (0 Bft)
04.10.2013 20:10 10,8 C 82 % 1019,2 hPa 0,0 l/m 0,0 km/h (0 Bft) NO 36 0 min 0,000 mm 0,0 UV-I 0 W/m 7,9 C 10,8 C 0,0 km/h (0 Bft)
04.10.2013 20:15 10,8 C 82 % 1019,2 hPa 0,0 l/m 0,0 km/h (0 Bft) NO 36 0 min 0,000 mm 0,0 UV-I 0 W/m 7,9 C 10,8 C 0,0 km/h (0 Bft)
04.10.2013 20:20 10,8 C 82 % 1019,2 hPa 0,0 l/m 0,0 km/h (0 Bft) NO 36 0 min 0,000 mm 0,0 UV-I 0 W/m 7,9 C 10,8 C 0,0 km/h (0 Bft)
04.10.2013 20:25 10,8 C 82 % 1019,2 hPa 0,0 l/m 0,0 km/h (0 Bft) NO 36 0 min 0,000 mm 0,0 UV-I 0 W/m 7,9 C 10,8 C 0,0 km/h (0 Bft)
04.10.2013 20:30 10,8 C 83 % 1019,2 hPa 0,0 l/m 0,0 km/h (0 Bft) NO 36 0 min 0,000 mm 0,0 UV-I 0 W/m 8,0 C 10,8 C 0,0 km/h (0 Bft)
04.10.2013 20:35 10,8 C 83 % 1019,2 hPa 0,0 l/m 0,0 km/h (0 Bft) NO 36 0 min 0,000 mm 0,0 UV-I 0 W/m 8,0 C 10,8 C 0,0 km/h (0 Bft)
04.10.2013 20:40 10,8 C 83 % 1019,2 hPa 0,0 l/m 0,0 km/h (0 Bft) NO 36 0 min 0,000 mm 0,0 UV-I 0 W/m 8,0 C 10,8 C 0,0 km/h (0 Bft)
04.10.2013 20:45 10,7 C 83 % 1019,1 hPa 0,0 l/m 0,0 km/h (0 Bft) NO 36 0 min 0,000 mm 0,0 UV-I 0 W/m 7,9 C 10,7 C 0,0 km/h (0 Bft)
04.10.2013 20:50 10,7 C 83 % 1019,0 hPa 0,0 l/m 0,0 km/h (0 Bft) NO 36 0 min 0,000 mm 0,0 UV-I 0 W/m 7,9 C 10,7 C 0,0 km/h (0 Bft)
04.10.2013 20:55 10,8 C 83 % 1019,1 hPa 0,0 l/m 0,0 km/h (0 Bft) NO 36 0 min 0,000 mm 0,0 UV-I 0 W/m 8,0 C 10,8 C 0,0 km/h (0 Bft)
04.10.2013 21:00 10,8 C 83 % 1019,0 hPa 0,0 l/m 0,0 km/h (0 Bft) NO 36 0 min 0,000 mm 0,0 UV-I 0 W/m 8,0 C 10,8 C 1,6 km/h (1 Bft)
04.10.2013 21:05 10,8 C 84 % 1019,0 hPa 0,0 l/m 0,0 km/h (0 Bft) NO 36 0 min 0,000 mm 0,0 UV-I 0 W/m 8,2 C 10,8 C 0,0 km/h (0 Bft)
04.10.2013 21:10 10,8 C 84 % 1018,9 hPa 0,0 l/m 0,0 km/h (0 Bft) NO 36 0 min 0,000 mm 0,0 UV-I 0 W/m 8,2 C 10,8 C 1,6 km/h (1 Bft)
04.10.2013 21:15 10,7 C 84 % 1018,8 hPa 0,0 l/m 0,0 km/h (0 Bft) NO 36 0 min 0,000 mm 0,0 UV-I 0 W/m 8,1 C 10,7 C 1,6 km/h (1 Bft)
04.10.2013 21:20 10,7 C 84 % 1018,8 hPa 0,0 l/m 0,4 km/h (0 Bft) NO 47 0 min 0,000 mm 0,0 UV-I 0 W/m 8,1 C 10,7 C 4,8 km/h (1 Bft)
04.10.2013 21:25 10,8 C 83 % 1018,8 hPa 0,0 l/m 1,0 km/h (0 Bft) O 84 0 min 0,000 mm 0,0 UV-I 0 W/m 8,0 C 10,8 C 3,2 km/h (1 Bft)
04.10.2013 21:30 11,1 C 82 % 1018,8 hPa 0,0 l/m 3,4 km/h (1 Bft) O-NO 59 0 min 0,000 mm 0,0 UV-I 0 W/m 8,1 C 11,1 C 11,3 km/h (2 Bft)
04.10.2013 21:35 11,2 C 81 % 1018,8 hPa 0,0 l/m 1,7 km/h (1 Bft) O-NO 63 0 min 0,000 mm 0,0 UV-I 0 W/m 8,1 C 11,2 C 6,4 km/h (2 Bft)
04.10.2013 21:40 11,2 C 81 % 1018,7 hPa 0,0 l/m 2,8 km/h (1 Bft) NO 38 0 min 0,000 mm 0,0 UV-I 0 W/m 8,1 C 11,2 C 6,4 km/h (2 Bft)
04.10.2013 21:45 11,3 C 81 % 1018,8 hPa 0,0 l/m 2,2 km/h (1 Bft) O-NO 59 0 min 0,000 mm 0,0 UV-I 0 W/m 8,2 C 11,3 C 6,4 km/h (2 Bft)
04.10.2013 21:50 11,3 C 81 % 1018,7 hPa 0,0 l/m 2,4 km/h (1 Bft) NO 42 0 min 0,000 mm 0,0 UV-I 0 W/m 8,2 C 11,3 C 6,4 km/h (2 Bft)
04.10.2013 21:55 11,3 C 80 % 1018,9 hPa 0,0 l/m 1,5 km/h (1 Bft) O-NO 65 0 min 0,000 mm 0,0 UV-I 0 W/m 8,0 C 11,3 C 4,8 km/h (1 Bft)
04.10.2013 22:00 11,3 C 80 % 1018,8 hPa 0,0 l/m 2,2 km/h (1 Bft) NO 51 0 min 0,000 mm 0,0 UV-I 0 W/m 8,0 C 11,3 C 6,4 km/h (2 Bft)
04.10.2013 22:05 11,3 C 80 % 1018,7 hPa 0,0 l/m 1,8 km/h (1 Bft) NO 55 0 min 0,026 mm 0,0 UV-I 0 W/m 8,0 C 11,3 C 9,7 km/h (2 Bft)
04.10.2013 22:10 11,3 C 80 % 1018,6 hPa 0,0 l/m 0,6 km/h (0 Bft) NO 56 0 min 0,000 mm 0,0 UV-I 0 W/m 8,0 C 11,3 C 3,2 km/h (1 Bft)
04.10.2013 22:15 11,3 C 80 % 1018,6 hPa 0,0 l/m 1,4 km/h (1 Bft) NO 55 0 min 0,000 mm 0,0 UV-I 0 W/m 8,0 C 11,3 C 6,4 km/h (2 Bft)
04.10.2013 22:20 11,2 C 80 % 1018,5 hPa 0,0 l/m 2,9 km/h (1 Bft) NO 53 0 min 0,000 mm 0,0 UV-I 0 W/m 7,9 C 11,2 C 8,0 km/h (2 Bft)
04.10.2013 22:25 11,2 C 79 % 1018,5 hPa 0,0 l/m 4,1 km/h (1 Bft) O 86 0 min 0,000 mm 0,0 UV-I 0 W/m 7,7 C 11,2 C 11,3 km/h (2 Bft)
04.10.2013 22:30 11,1 C 80 % 1018,5 hPa 0,0 l/m 2,7 km/h (1 Bft) NO 51 0 min 0,000 mm 0,0 UV-I 0 W/m 7,8 C 11,1 C 8,0 km/h (2 Bft)
04.10.2013 22:35 11,1 C 80 % 1018,4 hPa 0,0 l/m 3,0 km/h (1 Bft) O-NO 57 0 min 0,000 mm 0,0 UV-I 0 W/m 7,8 C 11,1 C 8,0 km/h (2 Bft)
04.10.2013 22:40 11,1 C 79 % 1018,4 hPa 0,0 l/m 2,4 km/h (1 Bft) O-NO 65 0 min 0,000 mm 0,0 UV-I 0 W/m 7,6 C 11,1 C 6,4 km/h (2 Bft)
04.10.2013 22:45 11,1 C 79 % 1018,5 hPa 0,0 l/m 1,7 km/h (1 Bft) O-NO 71 0 min 0,000 mm 0,0 UV-I 0 W/m 7,6 C 11,1 C 4,8 km/h (1 Bft)
04.10.2013 22:50 11,1 C 79 % 1018,4 hPa 0,0 l/m 1,7 km/h (1 Bft) NO 38 0 min 0,000 mm 0,0 UV-I 0 W/m 7,6 C 11,1 C 6,4 km/h (2 Bft)
04.10.2013 22:55 11,1 C 80 % 1018,5 hPa 0,0 l/m 0,5 km/h (0 Bft) O 96 0 min 0,000 mm 0,0 UV-I 0 W/m 7,8 C 11,1 C 3,2 km/h (1 Bft)
04.10.2013 23:00 11,0 C 80 % 1018,4 hPa 0,0 l/m 1,1 km/h (1 Bft) O-NO 68 0 min 0,000 mm 0,0 UV-I 0 W/m 7,7 C 11,0 C 4,8 km/h (1 Bft)
04.10.2013 23:05 11,0 C 80 % 1018,5 hPa 0,0 l/m 0,5 km/h (0 Bft) O-NO 60 0 min 0,025 mm 0,0 UV-I 0 W/m 7,7 C 11,0 C 3,2 km/h (1 Bft)
04.10.2013 23:10 11,0 C 80 % 1018,4 hPa 0,0 l/m 0,2 km/h (0 Bft) O-NO 60 0 min 0,000 mm 0,0 UV-I 0 W/m 7,7 C 11,0 C 1,6 km/h (1 Bft)
04.10.2013 23:15 10,9 C 80 % 1018,4 hPa 0,0 l/m 0,5 km/h (0 Bft) O-NO 66 0 min 0,000 mm 0,0 UV-I 0 W/m 7,6 C 10,9 C 3,2 km/h (1 Bft)
04.10.2013 23:20 10,9 C 80 % 1018,4 hPa 0,0 l/m 0,3 km/h (0 Bft) O-SO 104 0 min 0,000 mm 0,0 UV-I 0 W/m 7,6 C 10,9 C 4,8 km/h (1 Bft)
04.10.2013 23:25 10,9 C 81 % 1018,3 hPa 0,0 l/m 0,6 km/h (0 Bft) O-NO 63 0 min 0,000 mm 0,0 UV-I 0 W/m 7,8 C 10,9 C 3,2 km/h (1 Bft)
04.10.2013 23:30 10,9 C 80 % 1018,3 hPa 0,0 l/m 0,9 km/h (0 Bft) O-NO 64 0 min 0,000 mm 0,0 UV-I 0 W/m 7,6 C 10,9 C 4,8 km/h (1 Bft)
04.10.2013 23:35 10,8 C 81 % 1018,3 hPa 0,0 l/m 1,2 km/h (1 Bft) O-NO 64 0 min 0,000 mm 0,0 UV-I 0 W/m 7,7 C 10,8 C 3,2 km/h (1 Bft)
04.10.2013 23:40 10,8 C 81 % 1018,2 hPa 0,0 l/m 1,0 km/h (0 Bft) O-NO 61 0 min 0,000 mm 0,0 UV-I 0 W/m 7,7 C 10,8 C 4,8 km/h (1 Bft)
04.10.2013 23:45 10,7 C 81 % 1018,1 hPa 0,0 l/m 1,0 km/h (0 Bft) O-NO 62 0 min 0,000 mm 0,0 UV-I 0 W/m 7,6 C 10,7 C 3,2 km/h (1 Bft)
04.10.2013 23:50 10,7 C 82 % 1018,1 hPa 0,0 l/m 0,3 km/h (0 Bft) O-NO 63 0 min 0,000 mm 0,0 UV-I 0 W/m 7,8 C 10,7 C 1,6 km/h (1 Bft)
04.10.2013 23:55 10,7 C 82 % 1018,2 hPa 0,0 l/m 0,6 km/h (0 Bft) O 82 0 min 0,000 mm 0,0 UV-I 0 W/m 7,8 C 10,7 C 3,2 km/h (1 Bft)
_ Min-Zeit 02:05 05:00 23:45 - 00:00 - - - - - - 05:00 01:45 00:40
Minimum _ 6,5 C 66 % 1018,1 hPa - 0,0 km/h (0 Bft) - - - - - - 2,2 C 6,6 C 0,0 km/h (0 Bft)
_ Max-Zeit 13:35 21:05 00:45 07:25 11:45 - - 10:00 14:05 13:25 13:25 21:05 13:35 14:30
Maximum _ 14,0 C 84 % 1020,6 hPa 0,2 l/m 7,8 km/h
O (2 Bft)
- - 5 min 0,178 mm 2,7 UV-I 575 W/m 8,2 C 13,9 C 19,3 km/h
O-SO (3 Bft)
Durchschnitt _ 9,8 C 74 % 1019,6 hPa #0,4 l/m 2,5 km/h (1 Bft) O-NO - #3:20 h #1,346 mm 1,3 UV-I 183 W/m 5,4 C 9,8 C 7,3 km/h (2 Bft)